Location: Unspecified
(20.0000°S, 0.0000°E)
Time: 04:00:33
(UTC+00:00)

KKS-1 - Pass Details

Date: 31 August 2019
Orbit: 638 x 649 km, 98.3° (Epoch: 15 September)

Event Time Altitude Azimuth Distance (km) Brightness Sun altitude
Rises 18:19:54 0° 26° (NNE) 2,949 ? -7.5°
Reaches altitude 10° 18:22:10 10° 32° (NNE) 2,044 ? -8.0°
Maximum altitude 18:26:24 45° 104° (ESE) 889 ? -9.0°
Drops below altitude 10° 18:30:41 10° 177° (S) 2,061 ? -10.0°
Sets 18:32:59 0° 182° (S) 2,976 ? -10.5°
